APRIZESAT 2 1 28366U 04025A 26207.18003343 .00000266 00000+0 95126-4 0 9995 2 28366 98.1053 10.9603 0106546 131.9477 229.0853 14.38052384157242 SAUDICOMSAT 1 1 28369U 04025D 26207.26993002 .00000365 00000+0 94723-4 0 9999 2 28369 98.5782 218.4582 0030846 263.6254 96.1429 14.55500084169816 SAUDICOMSAT 2 1 28370U 04025E 26206.97568767 .00000300 00000+0 88371-4 0 9995 2 28370 98.6646 220.3189 0056299 141.2758 219.2492 14.49999458165727 APRIZESAT 1 1 28372U 04025G 26207.02815063 .00000286 00000+0 82238-4 0 9997 2 28372 98.6313 218.8121 0045332 38.4726 321.9685 14.51797320167540 NANOSAT-1 1 28493U 04049B 26207.17398821 .00001172 00000+0 16141-3 0 9995 2 28493 98.2323 344.8004 0004540 151.7460 208.3998 14.80229544161214 SAUDICOMSAT 7 1 31119U 07012C 26206.39970101 .00000690 00000+0 13196-3 0 9998 2 31119 98.3808 181.3196 0056991 77.0400 283.7159 14.66146769 28038 SAUDICOMSAT 6 1 31121U 07012E 26207.15407092 .00000430 00000+0 91804-4 0 9995 2 31121 98.4127 175.4031 0071088 204.5664 155.2144 14.62592072 25886 SAUDICOMSAT 5 1 31124U 07012H 26206.38771240 .00000763 00000+0 13963-3 0 9999 2 31124 98.3519 182.0472 0047537 7.1470 353.0402 14.68203948 29202 SAUDICOMSAT 3 1 31125U 07012J 26207.16634293 .00000811 00000+0 14034-3 0 9997 2 31125 98.3175 183.3877 0037749 289.5852 70.1280 14.70763658 30551 SAUDICOMSAT 4 1 31127U 07012L 26207.16664613 .00000572 00000+0 11448-3 0 9998 2 31127 98.4014 180.5385 0064241 135.7609 224.8755 14.64544424 26997 APRIZESAT 4 1 35684U 09041D 26207.16463323 .00000862 00000+0 10913-3 0 9997 2 35684 98.1396 283.2595 0042968 193.3910 166.6167 14.83927952917148 APRIZESAT 3 1 35686U 09041F 26207.15254300 .00001071 00000+0 97320-4 0 9992 2 35686 98.2105 2.2565 0060530 298.9877 60.5284 14.96326928922209 S-NET D 1 43186U 18014G 26207.18519100 .00004442 00000+0 22813-3 0 9990 2 43186 97.5320 111.7335 0006412 235.9301 124.1324 15.17001550464676 S-NET B 1 43187U 18014H 26207.19741686 .00004904 00000+0 25168-3 0 9997 2 43187 97.5327 111.7333 0007149 230.9949 129.0648 15.16972022464676 S-NET A 1 43188U 18014J 26207.18385448 .00004593 00000+0 23571-3 0 9997 2 43188 97.5336 111.9362 0007029 231.8153 128.2448 15.17010317464675 S-NET C 1 43189U 18014K 26207.20150963 .00004912 00000+0 25209-3 0 9998 2 43189 97.5355 112.0344 0008530 224.5806 135.4741 15.16962606463223 SALSAT 1 46495U 20068K 26206.46920955 .00007256 00000+0 25013-3 0 9993 2 46495 97.8864 211.8813 0010316 158.0440 202.1243 15.30293295321211 OOV-CUBE (TUBSAT-30) 1 60240U 24128F 26207.11206498 .00002294 00000+0 18289-3 0 9994 2 60240 61.9952 89.8301 0039701 142.4920 217.8954 15.02913043111969 LPNTSAT-001 (IOD-1) 1 68408U 26065A 26206.62294483 .00002533 00000+0 12501-3 0 9993 2 68408 97.3966 86.3130 0015016 226.4296 133.5693 15.18709819 18090 CHUANG XIN 26 (CX-26) 1 69972U 26158A 26207.06620797 -.00000122 00000+0 16079-4 0 9991 2 69972 49.9824 234.5389 0004961 337.0494 23.0197 14.25116294 2251